| time (UTC) | temp F | wind direction | speed knots | gust knots | rain 1hr in | rain 24hr in | rain mn in | humidity % | barometer mb |
| 20260503013052 | 68 | 0 | 0.0 | 0.0 | 0.00 | 0.00 | 0.00 | 29 | 1014.6 |
| 20260503011552 | 68 | 0 | 0.0 | 1.7 | 0.00 | 0.00 | 0.00 | 29 | 1014.6 |
| 20260503010053 | 67 | 299 | 0.9 | 1.7 | 0.00 | 0.00 | 0.00 | 30 | 1014.8 |
| 20260503004552 | 67 | 288 | 0.9 | 3.5 | 0.00 | 0.00 | 0.00 | 30 | 1014.9 |
| 20260503003056 | 67 | 352 | 2.6 | 3.5 | 0.00 | 0.00 | 0.00 | 30 | 1015.0 |
| 20260503001609 | 68 | 302 | 3.5 | 4.3 | 0.00 | 0.00 | 0.00 | 30 | 1015.1 |
| 20260503000053 | 68 | 321 | 0.0 | 5.2 | 0.00 | 0.00 | 0.00 | 28 | 1015.3 |
| 20260502234553 | 69 | 271 | 1.7 | 3.5 | 0.00 | 0.00 | 0.00 | 28 | 1015.2 |
| 20260502233057 | 70 | 158 | 1.7 | 7.0 | 0.00 | 0.00 | 0.00 | 28 | 1015.5 |
| 20260502231551 | 69 | 340 | 1.7 | 4.3 | 0.00 | 0.00 | 0.00 | 29 | 1015.8 |
| 20260502230053 | 68 | 282 | 1.7 | 6.1 | 0.00 | 0.00 | 0.00 | 30 | 1016.0 |
| 20260502224551 | 69 | 293 | 4.3 | 7.8 | 0.00 | 0.00 | 0.00 | 30 | 1016.1 |
| 20260502223054 | 67 | 307 | 2.6 | 12.2 | 0.00 | 0.00 | 0.00 | 31 | 1016.3 |
| 20260502221554 | 68 | 353 | 2.6 | 6.1 | 0.00 | 0.00 | 0.00 | 31 | 1016.6 |
| 20260502220055 | 68 | 296 | 0.9 | 7.8 | 0.00 | 0.00 | 0.00 | 30 | 1016.7 |
| 20260502214600 | 67 | 347 | 4.3 | 6.1 | 0.00 | 0.00 | 0.00 | 32 | 1016.8 |
| 20260502213051 | 68 | 316 | 2.6 | 6.1 | 0.00 | 0.00 | 0.00 | 31 | 1017.0 |
| 20260502211551 | 68 | 77 | 2.6 | 7.0 | 0.00 | 0.00 | 0.00 | 32 | 1017.2 |
| 20260502210114 | 67 | 124 | 1.7 | 7.0 | 0.00 | 0.00 | 0.00 | 33 | 1017.5 |
| 20260502204555 | 67 | 115 | 3.5 | 9.6 | 0.00 | 0.00 | 0.00 | 34 | 1017.6 |
| 20260502203055 | 66 | 61 | 2.6 | 8.7 | 0.00 | 0.00 | 0.00 | 35 | 1017.7 |
| 20260502201607 | 67 | 351 | 6.1 | 11.3 | 0.00 | 0.00 | 0.00 | 33 | 1017.8 |
| 20260502200053 | 67 | 57 | 3.5 | 13.9 | 0.00 | 0.00 | 0.00 | 35 | 1018.1 |
| 20260502194555 | 67 | 34 | 5.2 | 10.4 | 0.00 | 0.00 | 0.00 | 34 | 1018.2 |
| 20260502193058 | 66 | 335 | 3.5 | 7.8 | 0.00 | 0.00 | 0.00 | 33 | 1018.3 |
| 20260502191553 | 66 | 330 | 2.6 | 6.1 | 0.00 | 0.00 | 0.00 | 33 | 1018.3 |
| 20260502190057 | 65 | 294 | 5.2 | 7.8 | 0.00 | 0.00 | 0.00 | 34 | 1018.4 |
| 20260502184604 | 66 | 52 | 0.9 | 7.8 | 0.00 | 0.00 | 0.00 | 34 | 1018.6 |
| 20260502183102 | 65 | 326 | 0.9 | 4.3 | 0.00 | 0.00 | 0.00 | 34 | 1018.8 |
| 20260502181605 | 67 | 50 | 4.3 | 7.8 | 0.00 | 0.00 | 0.00 | 34 | 1018.9 |
| 20260502163059 | 64 | 332 | 5.2 | 10.4 | 0.00 | 0.00 | 0.00 | 37 | 1019.3 |
| 20260502161556 | 63 | 51 | 3.5 | 10.4 | 0.00 | 0.00 | 0.00 | 38 | 1019.3 |
| 20260502151603 | 61 | 88 | 2.6 | 6.1 | 0.00 | 0.00 | 0.00 | 38 | 1019.5 |
| 20260502150105 | 59 | 63 | 2.6 | 6.1 | 0.00 | 0.00 | 0.00 | 40 | 1019.4 |
| 20260502123105 | 46 | 0 | 0.0 | 1.7 | 0.00 | 0.00 | 0.00 | 55 | 1018.2 |
| 20260502121557 | 46 | 0 | 0.0 | 4.3 | 0.00 | 0.00 | 0.00 | 54 | 1018.1 |
| 20260502114558 | 44 | 269 | 0.9 | 3.5 | 0.00 | 0.00 | 0.00 | 59 | 1017.8 |
| 20260502113053 | 43 | 0 | 0.0 | 0.9 | 0.00 | 0.00 | 0.00 | 59 | 1017.4 |
| 20260502111554 | 44 | 0 | 0.9 | 2.6 | 0.00 | 0.00 | 0.00 | 56 | 1017.2 |
| 20260502110059 | 45 | 297 | 2.6 | 3.5 | 0.00 | 0.00 | 0.00 | 56 | 1017.0 |
| 20260502104557 | 43 | 139 | 1.7 | 2.6 | 0.00 | 0.00 | 0.00 | 61 | 1016.8 |
| 20260502103100 | 43 | 0 | 0.0 | 1.7 | 0.00 | 0.00 | 0.00 | 57 | 1016.6 |
| 20260502101620 | 44 | 297 | 3.5 | 5.2 | 0.00 | 0.00 | 0.00 | 54 | 1016.4 |
| 20260502100116 | 44 | 269 | 2.6 | 5.2 | 0.00 | 0.00 | 0.00 | 55 | 1016.1 |
| 20260502080108 | 42 | 0 | 0.0 | 2.6 | 0.00 | 0.00 | 0.00 | 49 | 1015.3 |
| 20260502070056 | 46 | 0 | 0.0 | 1.7 | 0.00 | 0.00 | 0.00 | 44 | 1014.9 |
| 20260502064558 | 46 | 262 | 1.7 | 4.3 | 0.00 | 0.00 | 0.00 | 43 | 1015.0 |
| 20260502063057 | 47 | 170 | 0.9 | 3.5 | 0.00 | 0.00 | 0.00 | 46 | 1015.0 |
| 20260502061554 | 49 | 238 | 0.0 | 2.6 | 0.00 | 0.00 | 0.00 | 43 | 1014.9 |
| 20260502060058 | 51 | 290 | 3.5 | 5.2 | 0.00 | 0.00 | 0.00 | 42 | 1014.8 |
| 20260502054559 | 49 | 277 | 2.6 | 3.5 | 0.00 | 0.00 | 0.00 | 43 | 1014.7 |
| 20260502053113 | 48 | 292 | 2.6 | 2.6 | 0.00 | 0.00 | 0.00 | 46 | 1014.6 |
| 20260502051552 | 49 | 290 | 1.7 | 2.6 | 0.00 | 0.00 | 0.00 | 43 | 1014.6 |
| 20260502050052 | 48 | 257 | 0.0 | 1.7 | 0.00 | 0.00 | 0.00 | 42 | 1014.6 |
| 20260502044553 | 51 | 261 | 1.7 | 2.6 | 0.00 | 0.00 | 0.00 | 40 | 1014.4 |
| 20260502043106 | 51 | 286 | 0.9 | 1.7 | 0.00 | 0.00 | 0.00 | 38 | 1014.3 |
| 20260502041553 | 53 | 250 | 1.7 | 2.6 | 0.00 | 0.00 | 0.00 | 35 | 1014.3 |
| 20260502040054 | 53 | 247 | 2.6 | 3.5 | 0.00 | 0.00 | 0.00 | 35 | 1014.2 |
| 20260502034551 | 55 | 243 | 3.5 | 4.3 | 0.00 | 0.00 | 0.00 | 35 | 1014.2 |
| 20260502033102 | 54 | 216 | 0.9 | 1.7 | 0.00 | 0.00 | 0.00 | 33 | 1014.0 |
| 20260502031552 | 56 | 0 | 0.0 | 0.0 | 0.00 | 0.00 | 0.00 | 31 | 1013.7 |
| 20260502030101 | 59 | 0 | 0.0 | 2.6 | 0.00 | 0.00 | 0.00 | 27 | 1013.5 |
| 20260502024550 | 59 | 0 | 0.0 | 0.0 | 0.00 | 0.00 | 0.00 | 26 | 1013.3 |
| 20260502023110 | 62 | 0 | 0.0 | 0.0 | 0.00 | 0.00 | 0.00 | 25 | 1013.1 |
| 20260502021558 | 66 | 0 | 0.0 | 0.0 | 0.00 | 0.00 | 0.00 | 23 | 1013.0 |
| 20260502020053 | 68 | 0 | 0.0 | 1.7 | 0.00 | 0.00 | 0.00 | 21 | 1013.0 |
| 20260502014600 | 71 | 287 | 0.9 | 2.6 | 0.00 | 0.00 | 0.00 | 20 | 1012.9 |